Home > Weather > Redmond > Past weeks

Flag for U.S.A. Weather for the Past 2 Weeks in Redmond, Washington, U.S.A.

Now
48 °F

Passing clouds.


Feels Like: 42 °F
Forecast: 41 / 51 °F
Wind: 16 mph from Southwest

Location: Seattle Boeing Field

Current Time: Feb 6, 2016 at 12:13:36 AM

Latest Report: Feb 5, 2016 at 10:53 PM


Visibility: 10 mi

Pressure: 30.21 "Hg

Humidity: 74%

Dew point: 40 °F

Location of RedmondLocation

Historic Weather in Redmond — Graph

°F

Redmond Temperature Yesterday

Maximum temperature yesterday: 53 °F (at 2:53 PM)
Minimum temperature yesterday: 42 °F (at 4:53 AM)
Average temperature yesterday: 48 °F

High & Low Weather Summary for the Past Weeks

 TemperatureHumidityPressure
High57 °F (Jan 27, 1:53 PM)100% (Jan 23, 5:53 AM)30.39 "Hg (Jan 23, 5:53 AM)
Low35 °F (Feb 2, 7:53 AM)56% (Feb 2, 3:53 PM)29.60 "Hg (Jan 29, 8:53 AM)
Average47 °F85%30.06 "Hg
* Reported Jan 21 10:53 PM — Feb 5 10:53 PM, Redmond, Weather by CustomWeather, © 2016

Note: Actual official high and low records may vary slightly from our data, if they occured in-between our weather recording intervals... More about our weather records

Advertising

Redmond Weather History for the Previous 24 Hours

 ConditionsComfort  
Time TempWeatherWind HumidityBarometerVisibility
10:53 PM
Fri, Feb 5
48 °FPassing clouds.16 mph74%30.21 "Hg10 mi
10:03 PM48 °FPassing clouds.16 mph74%30.18 "Hg10 mi
9:53 PM49 °FPassing clouds.12 mph74%30.17 "Hg10 mi
8:53 PM50 °FMostly cloudy.17 mph80%30.15 "Hg10 mi
7:53 PM50 °FPartly cloudy.21 mph83%30.11 "Hg10 mi
6:53 PM50 °FLight rain. Mostly cloudy.21 mph83%30.08 "Hg10 mi
5:53 PM50 °FLight rain. Overcast.14 mph83%30.09 "Hg5 mi
4:53 PM50 °FLight rain. Overcast.5 mph80%30.03 "Hg5 mi
3:53 PM51 °FMostly cloudy.3 mph71%29.98 "Hg10 mi
2:53 PM53 °FScattered clouds.3 mph64%30.01 "Hg10 mi
1:53 PM50 °FOvercast.12 mph77%30.06 "Hg10 mi
12:53 PM50 °FOvercast.8 mph80%30.10 "Hg10 mi
11:53 AM50 °FPartly sunny.6 mph74%30.15 "Hg10 mi
10:53 AM49 °FPartly sunny.3 mph84%30.17 "Hg10 mi
9:53 AM47 °FScattered clouds.6 mph86%30.18 "Hg10 mi
8:53 AM44 °FPartly sunny.No wind96%30.20 "Hg10 mi
7:53 AM43 °FPartly sunny.6 mph97%30.20 "Hg10 mi
6:53 AM42 °FPassing clouds.5 mph96%30.22 "Hg10 mi
5:53 AM44 °FLight rain. Passing clouds.No wind100%30.24 "Hg10 mi
4:53 AM42 °FClear.No wind100%30.26 "Hg10 mi
3:53 AM43 °FPassing clouds.No wind97%30.29 "Hg10 mi
2:53 AM45 °FPassing clouds.No wind97%30.31 "Hg10 mi
1:53 AM46 °FClear.No wind89%30.33 "Hg10 mi
12:53 AM46 °FClear.No wind93%30.35 "Hg10 mi
Weather by CustomWeather, © 2016

See weather overviewHow to use our weather pages